Flag for Canada Weather past 2 weeks in Abbotsford, British Columbia, Canada

Now
36 °F

Scattered clouds.


Feels Like: 36 °F
Forecast: 25 / 50 °F
Wind: No wind

Location: Abbotsford

Current Time: Mar 4, 2015 at 9:31:36 AM

Latest Report: Mar 4, 2015 at 9:00 AM


Visibility: 30 mi

Pressure: 30.33 "Hg

Humidity: 60%

Dew point: 23 °F

Location of AbbotsfordLocation

Historic Weather in Abbotsford — Graph

°F

Abbotsford temperature yesterday

Maximum temperature yesterday: 50 °F (at 2:00 PM)
Minimum temperature yesterday: 32 °F (at 10:00 PM)
Average temperature yesterday: 42 °F

Past Weeks' High & Low Weather Summary

 TemperatureHumidityPressure
High59 °F (Feb 17, 1:00 PM)100% (Feb 18, 9:00 PM)30.50 "Hg (Feb 18, 9:00 PM)
Low27 °F (Mar 4, 4:00 AM)13% (Mar 3, 4:00 PM)29.78 "Hg (Feb 27, 6:00 AM)
Average44 °F69%30.24 "Hg
* Reported Feb 17 8:00 AM — Mar 4 8:00 AM, Abbotsford, Weather by CustomWeather, © 2015

Note: Actual official high and low records may vary slightly from our data, if they occured in-between our weather recording intervals... More about our weather records

Advertising

Abbotsford weather history for previous 24 hours

 ConditionsComfort  
Time TempWeatherWind HumidityBarometerVisibility
8:00 AM
Wed, Mar 4
32 °FScattered clouds.5 mph69%30.32 "Hg30 mi
7:00 AM27 °FPassing clouds.5 mph74%30.31 "Hg30 mi
6:00 AM27 °FClear.3 mph74%30.31 "Hg30 mi
5:00 AM27 °FClear.3 mph74%30.30 "Hg15 mi
4:00 AM27 °FClear.No wind80%30.30 "Hg15 mi
3:00 AM28 °FClear.5 mph74%30.30 "Hg15 mi
2:00 AM28 °FClear.3 mph74%30.30 "Hg15 mi
1:00 AM30 °FPassing clouds.2 mph69%30.29 "Hg15 mi
12:00 AM30 °FPassing clouds.No wind75%30.28 "Hg15 mi
11:00 PM
Tue, Mar 3
32 °FPassing clouds.2 mph64%30.27 "Hg15 mi
10:00 PM32 °FPassing clouds.No wind64%30.26 "Hg15 mi
9:00 PM34 °FClear.2 mph65%30.25 "Hg15 mi
8:00 PM37 °FPassing clouds.3 mph60%30.24 "Hg15 mi
7:00 PM39 °FPassing clouds.2 mph48%30.24 "Hg15 mi
6:00 PM45 °FPassing clouds.6 mph34%30.23 "Hg30 mi
5:00 PM46 °FPartly sunny.6 mph23%30.23 "Hg30 mi
4:00 PM50 °FPartly sunny.No wind13%30.24 "Hg30 mi
3:00 PM50 °FPartly sunny.2 mph14%30.24 "Hg30 mi
2:00 PM50 °FPartly sunny.6 mph14%30.24 "Hg30 mi
1:00 PM48 °FPartly sunny.6 mph20%30.26 "Hg30 mi
12:00 PM48 °FScattered clouds.14 mph20%30.28 "Hg30 mi
11:00 AM46 °FScattered clouds.7 mph15%30.28 "Hg30 mi
10:00 AM45 °FScattered clouds.12 mph18%30.29 "Hg30 mi
9:00 AM43 °FPassing clouds.13 mph19%30.29 "Hg30 mi
Weather by CustomWeather, © 2015

See weather overviewHow to use our weather pages